Starlink 5291

operational
NORAD ID: 55273 Int'l Des: 2023-010 Owner: SPXS Country: US Constellation: starlink
LEOCIRCULAR

关于 Starlink 5291

正在加载描述...

实时位置

正在加载3D地球...

即将过境

高度历史

Altitude vs Time

uPlot chart will show altitude changes over time

两行轨道根数

1 55273U 23010E 25304.60352484 .00000224 00000-0 26537-4 0 9999
2 55273 70.0006 9.7913 0002956 269.3490 90.7330 14.98333765153450
Epoch: Oct 31, 2025 • Age: 7 hours

当前状态

高度 576.1 km
速度 7.58 km/s
星下点 28.86°N, 173.75°E
发射日期 Jan 19, 2023
运行时间 2.7 years
类型 internet

技术详情

分类 Payload
质量 305.00 kg
干质量 290.00 kg
总质量 305.00 kg
长度 0.20 m
直径 2.80 m
跨度 9.00 m
形状 Box + pan
制造商 SPXS
平台类型 Starlink
阶段状态 In Orbit
所有者/国家 SPXS/US

大型星座

Loading constellations...